Regional Weather Roundup
Issued by NWS

Home | Current Version | Previous Version | Graphics & Text | Print | Product List | Glossary On
Versions: 1 2 3 4 5 6 7 8 9 10 11 12 13 14 15 16 17 18 19 20 21 22 23 24 25 26 27 28 29 30 31 32 33 34 35 36 37 38 39 40 41 42 43 44 45 46 47 48 49 50
000
ASUS43 KDMX 182201
RWRIA

WEATHER ROUNDUP FOR IOWA
NATIONAL WEATHER SERVICE DES MOINES IA
400 PM CST THU JAN 18 2018

NOTE: "FAIR" INDICATES FEW OR NO CLOUDS BELOW 12,000 FEET WITH NO
SIGNIFICANT WEATHER AND/OR OBSTRUCTIONS TO VISIBILITY.

* - THESE STATIONS ARE NOT NWS STATIONS...THUS NOT UNDER NWS
QUALITY CONTROL.  THEY ALSO DO NOT REPORT WEATHER SUCH
AS PRECIPITATION OR FOG.

IAZ001>003-012>014-020>022-031>034-043>046-182300-
   NORTHWEST IOWA

CITY           SKY/WX    TMP DP  RH WIND       PRES   REMARKS
CARROLL *      CLOUDY    34  23  64 SW17G24   29.87F WCI  23
CHEROKEE *     CLOUDY    38  25  58 S9        29.85R WCI  31
DENISON *      CLOUDY    32  21  64 S15       29.90S WCI  22
LE MARS *      CLOUDY    43  27  52 SW10      29.84R
ORANGE CITY *  CLOUDY    41  28  60 SW8       29.84S
SHELDON *      CLOUDY    39  28  65 SW7       29.82R WCI  34
SIOUX CITY     CLOUDY    44  27  51 SW7       29.87S
SPENCER        CLOUDY    39  26  59 SW9       29.84R WCI  33
STORM LAKE *   CLOUDY    39  25  56 SW15      29.85R WCI  31
$$

IAZ055>058-069>071-079>083-090>094-182300-
   SOUTHWEST IOWA

CITY           SKY/WX    TMP DP  RH WIND       PRES   REMARKS
ATLANTIC *     CLOUDY    34  21  60 S18       29.94F WCI  23
AUDUBON *      CLOUDY    32  23  69 S12G17    29.92F WCI  23
CLARINDA *     CLOUDY    34  25  69 S13       30.01F WCI  25
COUNCIL BLFS * CLOUDY    34  21  60 S13       29.92S WCI  25
CRESTON *      CLOUDY    34  21  60 SW16      29.98S WCI  23
HARLAN  *      CLOUDY    32  23  69 S18       29.95S WCI  20
LAMONI         CLOUDY    36  21  54 S15       30.00F WCI  27
RED OAK *      CLOUDY    34  23  64 S15       29.96F WCI  24
SHENANDOAH *   CLOUDY    36  25  64 S12       29.99F WCI  27
$$

IAZ047>049-059>061-072>074-084-182300-
   CENTRAL IOWA

CITY           SKY/WX    TMP DP  RH WIND       PRES   REMARKS
AMES           CLOUDY    35  25  66 SW12      29.93F WCI  27
ANKENY *       CLOUDY    37  19  48 SW12      29.96F WCI  30
BOONE *        CLOUDY    36  23  60 SW12G20   29.89F WCI  27
CHARITON *     CLOUDY    36  21  55 SW12G20   29.98S WCI  27
DES MOINES     CLOUDY    37  21  52 SW9       29.95F WCI  30
GRINNELL*      CLEAR     34  22  60 S14       29.97S WCI  24
KNOXVILLE *    SUNNY     37  19  48 SW10G18   29.96S WCI  30
MARSHALLTOWN   CLOUDY    34  22  61 S16       29.92F WCI  24
NEWTON *       CLOUDY    36  21  55 SW14G20   29.95F WCI  27
PELLA *        SUNNY     37  21  52 SW10G16   29.99S WCI  29
PERRY *          N/A     34  23  64 S13       29.92F WCI  25
$$

IAZ004>006-015-016-023>025-035-036-182300-
   NORTH CENTRAL IOWA

CITY           SKY/WX    TMP DP  RH WIND       PRES   REMARKS
ALGONA *       CLOUDY    36 N/A N/A SW13      29.85R WCI  27
CLARION *      CLOUDY    34  30  86 S16       29.86F WCI  23
ESTHERVILLE    CLOUDY    38  28  67 SW12      29.82R WCI  30
FORT DODGE *   CLOUDY    35  25  66 SW14      29.87F WCI  26
MASON CITY     CLOUDY    34  24  67 SW13      29.86F WCI  25
FOREST CITY *    N/A     34  27  75 SW9       29.85S WCI  26
WEBSTER CITY * CLOUDY    36  25  64 S13       29.86F WCI  27
IOWA FALLS *     N/A     35  26  68 S12       29.90F WCI  27
$$

IAZ007>011-017>019-026>030-037>042-050>054-066-182300-
   NORTHEAST IOWA

CITY           SKY/WX    TMP DP  RH WIND       PRES   REMARKS
CEDAR RAPIDS     N/A     36  21  54 SW14      29.95F WCI  27
CHARLES CITY *   N/A     34  25  69 SW12      29.87F WCI  25
CLINTON *        N/A     34  23  64 SW13      29.99F WCI  25
DECORAH *        N/A     34  21  60 SW10      29.87S WCI  26
DUBUQUE          N/A     31  19  61 SW16      29.92R WCI  20
MONTICELLO *     N/A     34  21  60 SW14G20   29.94F WCI  24
OELWEIN *        N/A     32  25  74 SW13      29.91S WCI  22
WATERLOO         N/A     34  22  61 SW14      29.91F WCI  25
$$

IAZ064-065-067-068-078-182300-
   EAST CENTRAL IOWA

CITY           SKY/WX    TMP DP  RH WIND       PRES   REMARKS
DAVENPORT        N/A     35  20  54 MISG      30.01F
IOWA CITY        N/A     37  20  50 SW8       30.01F WCI  31
MT. PLEASANT * CLEAR     34  21  60 SW16G22   30.03S WCI  23
MUSCATINE *      N/A     36  21  55 S14       30.02F WCI  27
QUAD CITIES      N/A     35  21  56 SW10      30.00F WCI  27
$$

IAZ062-063-075>077-085>089-095>099-182300-
   SOUTHEAST IOWA

CITY           SKY/WX    TMP DP  RH WIND       PRES   REMARKS
BURLINGTON     CLEAR     35  21  56 SW16      30.03  WCI  25
FAIRFIELD *    CLEAR     36  19  51 SW10G17   30.01S WCI  28
FORT MADISON * CLEAR     36  21  55 SW15G23   30.05S WCI  26
KEOKUK *       CLEAR     37  21  52 SW17      30.05S WCI  28
OSKALOOSA *      N/A     35  22  61 SW17      29.99F WCI  24
OTTUMWA        SUNNY     37  20  50 SW12      30.00S WCI  29
WASHINGTON *   CLEAR     36  21  55 SW15      30.02S WCI  26
$$

ABBREVIATIONS USED IN REMARKS
   TC - TEMPERATURES IN CELSIUS
  WCI - WIND CHILL INDEX
   HX - HEAT INDEX
  VSB - VISIBILITY
$$





USA.gov is the U.S. government's official web portal to all federal, state and local government web resources and services.